Regional Weather Roundup
Issued by NWS

Home | Current Version | Previous Version | Text Only | Print | Product List | Glossary On
Versions: 1 2 3 4 5 6 7 8 9 10 11 12 13 14 15 16 17 18 19 20 21 22 23 24 25 26 27 28 29 30 31 32 33 34 35 36 37 38 39 40 41 42 43 44 45 46 47 48 49 50
000
ASUS42 KKEY 302010
RWRKEY

FLORIDA REGIONAL WEATHER ROUNDUP FOR THE FLORIDA KEYS
NATIONAL WEATHER SERVICE KEY WEST FLORIDA
400 PM EDT WED JUL 30 2014

...SOUTH FLORIDA AND THE KEYS...

CITY           SKY/WX    TMP DP  RH WIND       PRES   REMARKS
FORT MYERS     MOSUNNY   92  73  53 W15       29.93F HX 100
SW REGIONAL AP MOSUNNY   91  72  53 W12       29.94F HX  98
NAPLES         MOSUNNY   90  82  77 W12       29.95F HX 111
MIAMI          PTSUNNY   87  75  67 SE15G24   29.94F HX  96
WEST KENDALL   PTSUNNY   89  75  63 SE10      29.94F HX  99
HOMESTEAD      TSTM      79  75  89 S10G17    29.97F
MARATHON       PTSUNNY   89  78  70 SW9       29.97F HX 103
BOCA CHICA NAS PTSUNNY   91  76  61 W13       29.97F HX 103
KEY WEST INTL  MOSUNNY   90  75  61 SW13      29.98F HX 100

...INTERNATIONAL WEATHER...

CITY           SKY/WX    TMP DP  RH WIND       PRES   REMARKS
NASSAU BAHAMAS PTSUNNY   82  73  74 N5        30.02F
CANCUN MEXICO  MOSUNNY   91  75  59 NE9       29.99F HX 102
COZUMEL MEXICO MOSUNNY   88  72  58 E12       29.99F HX  94

ADJACENT COASTAL WATERS...

STATION/POSITION TIME  SKY/WX   TEMP    WIND        PRES    WAVE
                                AIR SEA DIR/SP/G            HT/PER
                 (UTC)          (F)     (DEG/KT/KT) (MB)    (FT/S)
PULASKI SHOAL LI 2000            86     280/ 11/ 12 1015.1F
SAND KEY         2000            85     250/  9/ 11 1015.2F
SOMBRERO KEY     2000            86     240/ 11/ 12 1015.6F
LONG KEY         1900            87 92  270/  5/  7 1016.2F
MOLASSES REEF    2000            85 87  220/ 14/ 15 1014.4F
FOWEY ROCKS      2000            84 86  200/ 12/ 13 1014.7F
Buoy 42080       NOT AVBL

$$



USA.gov is the U.S. government's official web portal to all federal, state and local government web resources and services.